Skip Page Navigation
NASA JPL Caltech
NASA Logo - Jet Propulsion Laboratory + View the NASA Portal
+ Near-Earth Object (NEO) Program
Search JPL
JPL Home Earth Solar System Stars & Galaxies Technology
JPL Solar System Dynamics
BODIES ORBITS EPHEMERIDES TOOLS PHYSICAL DATA DISCOVERY FAQ SITE MAP
JPL Small-Body Database Browser
Search: [ help ]  
288807 (2004 RW164)
Classification: Apollo [NEO]          SPK-ID: 2288807
Ephemeris | Orbit Diagram | Orbital Elements | Physical Parameters | Discovery Circumstances | Close-Approach Data ]

[ hide orbit diagram ]
Orbit Diagram
Note: Make sure you have Java enabled on your browser to see the applet. This applet is provided as a 3D orbit visualization tool. The applet was implemented using 2-body methods, and hence should not be used for determining accurate long-term trajectories (over several years or decades) or planetary encounter circumstances. For accurate long-term ephemerides, please instead use our Horizons system.
Orbit Viewer

Additional Notes: the orbits shown in the applet are color coded. The planets are white lines, and the asteroid/comet is a blue line. The bright white line indicates the portion of the orbit that is above the ecliptic plane, and the darker portion is below the ecliptic plane. Likewise for the asteroid/comet orbit, the light blue indicates the portion above the ecliptic plane, and the dark blue the portion below the ecliptic plane.

Orbit Viewer applet originally written and kindly provided by Osamu Ajiki (AstroArts), and further modified by Ron Baalke (JPL).


Orbital Elements at Epoch 2456400.5 (2013-Apr-18.0) TDB
Reference: JPL 21 (heliocentric ecliptic J2000)
 Element Value Uncertainty (1-sigma)   Units 
e .3767858287576976 1.8614e-07  
a 1.490059436004523 3.9249e-08 AU
q .9286261565113315 2.6673e-07 AU
i 36.77107367948069 3.6028e-05 deg
node 164.9637302766007 1.8275e-05 deg
peri 342.8042470087709 2.567e-05 deg
M 130.7908187465867 5.3082e-05 deg
tp 2456159.132622024500
(2012-Aug-19.63262202)
8.9146e-05 JED
period 664.3605178398485
1.82
2.6249e-05
7.187e-08
d
yr
n .5418744647417203 2.141e-08 deg/d
Q 2.051492715497715 5.4037e-08 AU
  Orbit Determination Parameters
   # obs. used (total)      84  
   data-arc span      3262 days (8.93 yr)  
   first obs. used      2002-09-04  
   last obs. used      2011-08-10  
   planetary ephem.      DE405  
   SB-pert. ephem.      SB405-CPV-2  
   condition code      0  
   fit RMS      .5638  
   data source      ORB  
   producer      Otto Matic  
   solution date      2013-Apr-29 15:50:59  

Additional Information
 Earth MOID = .0517616 AU 
 T_jup = 4.286 
[ show covariance matrix ]

Ephemeris | Orbit Diagram | Orbital Elements | Physical Parameters | Discovery Circumstances | Close-Approach Data ]

Physical Parameter Table
Parameter Symbol Value Units Sigma Reference Notes
absolute magnitude H 18.539 mag .45886 21 autocmod 2.5c

288807 (2004 RW164)          Discovered 2004-Sep-13 by Spacewatch at Kitt Peak (691)
Reference: 20110912/Numbers.arcLast Updated: 2011-09-14

[ show close-approach data ]
Ephemeris | Orbit Diagram | Orbital Elements | Physical Parameters | Discovery Circumstances | Close-Approach Data ]
ABOUT SSD CREDITS/AWARDS PRIVACY/COPYRIGHT GLOSSARY LINKS
FirstGov 2013-May-21 03:12 UT
(server date/time)  
NASA Home Page
Site Manager:   Donald K. Yeomans
Webmaster  Alan B. Chamberlin